This demonstration page uses our WeatherBlox Daily Observations layout. Learn more.

Left ArrowRight Arrow

39.08367, -84.50855

Hourly Observations for May 26, 2016

Temp ( °F °C ) Dew Point ( °F °C ) Humidity (%) Winds ( mph kmh ) Pressure ( in mb ) Visibility ( mi km ) Precip ( " mm )
12:53 am 00:53 Mostly Clear 65 18.3 64 17.8 97 97 Calm 30.06 1018 10 16 0.00 0.00
1:53 am 01:53 Clear 63 17.2 63 17.2 100 100 S 5 7 30.06 1018 9 14 0.00 0.00
2:53 am 02:53 Partly Cloudy 65 18.3 63 17.2 93 93 Calm 30.06 1018 10 16 0.00 0.00
3:53 am 03:53 Clear 64 17.8 63 17.2 96 96 Calm 30.06 1018 9 14 0.00 0.00
4:53 am 04:53 Mostly Clear 64 17.8 64 17.8 100 100 Calm 30.05 1018 8 13 0.00 0.00
5:53 am 05:53 Mostly Cloudy 63 17.2 63 17.2 100 100 SW 3 6 30.06 1018 7 11 0.00 0.03
6:53 am 06:53 Sunny 63 17.2 63 17.2 100 100 SW 3 6 30.07 1018 7 11 0.00 0.00
7:53 am 07:53 Mostly Cloudy 67 19.4 65 18.3 93 93 SSW 3 6 30.08 1019 10 16 0.00 0.00
8:08 am 08:08 Cloudy 66 19 64 18 94 94 SSW 5 7 30.06 1018 10 16 0.00 0.00
8:17 am 08:17 Partly Cloudy 67 19.4 65 18.3 93 93 SSW 5 7 30.06 1018 10 16 0.00 0.00
8:53 am 08:53 Partly Cloudy 70 21.1 66 18.9 87 87 SSW 8 13 30.08 1019 10 16 0.00 0.00
9:53 am 09:53 Mostly Cloudy 72 22.2 66 18.9 82 82 S 14 22 30.07 1018 10 16 0.00 0.00
10:53 am 10:53 Mostly Cloudy 74 23.3 65 18.3 74 74 S 12 19 30.07 1018 10 16 0.00 0.00
11:53 am 11:53 Mostly Cloudy 77 25 65 18.3 66 66 SSW 13 20 30.07 1018 10 16 0.00 0.00
12:53 pm 12:53 Cloudy 77 25 66 18.9 69 69 SSW 9 15 30.06 1018 10 16 0.00 0.00
1:53 pm 13:53 Mostly Cloudy 77 25 68 20 74 74 S 10 17 30.04 1017 10 16 0.00 0.00
2:53 pm 14:53 Mostly Cloudy 78 25.6 69 20.6 74 74 S 10 17 30.02 1017 10 16 0.00 0.00
3:45 pm 15:45 Cloudy with Nearby Thunderstorms 77 25 70 21.1 79 79 S 8 13 29.97 1015 10 16 0.00 0.00
3:53 pm 15:53 Cloudy with Thunderstorms 78 25.6 70 21.1 76 76 SSW 7 11 30.00 1016 8 13 0.00 0.00
4:05 pm 16:05 Cloudy with Thunderstorms 71 21.7 65 18.3 81 81 W 18 30 30.00 1016 1 2 0.12 3.05
4:12 pm 16:12 Cloudy with Strong Thunderstorms 66 19 64 18 94 94 SSE 8 13 30.00 1016 7 11 0.00 0.00
4:46 pm 16:46 Partly Cloudy with Nearby Thunderstorms 68 20 66 19 94 94 S 5 7 29.97 1015 10 16 0.00 0.00
4:53 pm 16:53 Partly Cloudy with Nearby Thunderstorms 67 19.4 65 18.3 93 93 SSW 6 9 29.99 1016 10 16 0.32 8.13
5:00 pm 17:00 Mostly Sunny 66 19 64 18 94 94 SW 8 13 29.97 1015 10 16 0.00 0.00
5:53 pm 17:53 Mostly Sunny 69 20.6 67 19.4 93 93 SSW 7 11 30.01 1016 10 16 0.00 0.00
6:53 pm 18:53 Sunny 70 21.1 68 20 93 93 S 6 9 29.98 1015 10 16 0.00 0.00
7:53 pm 19:53 Sunny 69 20.6 66 18.9 90 90 S 7 11 29.97 1015 10 16 0.00 0.00
8:53 pm 20:53 Sunny 66 18.9 66 18.9 100 100 SSW 3 6 29.97 1015 10 16 0.00 0.00
9:53 pm 21:53 Clear 65 18.3 65 18.3 100 100 S 3 6 30.01 1016 10 16 0.00 0.00
10:53 pm 22:53 Clear 65 18.3 65 18.3 100 100 Calm 30.01 1016 10 16 0.00 0.00
11:53 pm 23:53 Mostly Clear with Mist and Fog 63 17.2 63 17.2 100 100 Calm 30.01 1016 3 5 0.00 0.00
11:56 pm 23:56 Mostly Clear with Mist and Fog 63 17 63 17 100 100 Calm 30.00 1016 2 2 0.00 0.00

Powered by AerisWeather